Theta_e
309 308 308 308 308 308 308 308 308 307 307 307 307 306 306 306 306 306 306 306 306 306 307 307 307 307 308 308 309 309 309 310 310 310 311 311 311 311 311 310 309 309 309 309 309 309 310 310 310 310 310 310 309 309 309 308 308 308 307 306 305 304 304 303 303 303 303 302 302 301 301 301 300 298 297 295 293 291 289 288 288 288 287 286 288
308 308 308 308 308 308 308 308 308 307 307 307 306 306 306 306 306 307 307 306 306 305 305 306 306 306 306 307 307 307 308 308 309 309 309 309 310 310 310 309 308 308 308 308 308 308 308 308 308 308 309 309 309 309 309 309 308 307 306 306 305 304 304 303 302 302 302 302 300 299 299 298 297 296 295 294 292 290 288 288 288 288 287 287 288
307 307 308 308 308 308 308 308 307 307 307 307 306 306 306 306 306 306 306 306 306 306 305 305 305 305 305 306 306 306 306 307 307 307 308 308 308 308 308 308 307 307 307 307 307 307 307 307 307 307 308 308 308 308 308 308 308 307 306 305 304 303 303 303 302 301 302 301 299 298 297 296 295 294 293 292 291 289 288 287 287 287 286 287 287
307 308 307 307 308 307 307 307 307 307 307 307 307 306 306 306 306 306 306 306 306 305 305 305 305 304 304 305 305 305 305 305 305 306 306 306 306 306 306 305 305 305 306 306 306 306 306 306 306 306 307 307 307 307 307 307 306 306 305 304 304 303 303 303 302 301 301 301 298 296 295 294 293 292 292 290 288 288 287 286 286 286 286 286 286
307 307 307 307 307 307 307 307 307 307 307 307 307 307 307 306 306 306 305 305 305 305 305 305 304 304 304 304 304 303 304 304 304 304 304 304 304 304 304 304 304 304 304 305 305 305 305 305 305 305 306 306 306 306 306 306 305 305 304 303 303 303 303 302 302 301 300 300 297 294 292 292 290 289 289 288 286 286 286 285 285 285 285 285 285
306 306 306 306 306 306 306 306 306 306 306 306 306 306 306 306 306 306 305 305 305 305 305 305 304 304 304 303 303 303 302 302 302 303 303 303 303 303 303 302 302 303 303 303 304 304 304 304 305 305 305 305 305 305 305 305 304 304 303 303 302 302 302 301 301 300 298 299 297 292 289 289 288 287 287 287 286 285 284 284 285 285 285 284 284
305 305 305 305 305 305 305 305 305 305 305 305 305 305 305 305 305 305 305 305 305 305 305 304 304 304 304 304 303 302 302 302 302 302 302 302 302 302 302 301 301 301 302 302 302 303 303 303 304 304 304 305 305 305 305 304 304 303 302 302 302 301 300 300 299 298 297 297 295 292 289 288 287 286 285 285 285 284 284 284 283 284 284 284 284
304 304 304 304 304 304 304 304 304 304 304 304 305 305 305 304 304 304 304 304 304 304 304 304 304 304 304 303 303 302 302 302 302 302 301 301 301 301 301 300 300 300 300 301 301 302 302 303 303 304 304 305 305 305 305 305 303 302 302 302 301 300 299 299 298 297 296 295 294 291 289 287 286 285 284 284 284 284 284 284 283 283 284 284 284
303 302 302 302 302 302 303 303 303 303 303 303 304 304 304 304 304 303 303 303 303 303 303 303 303 303 303 303 303 303 302 302 302 301 301 301 301 300 300 299 299 299 300 300 300 301 301 302 303 304 304 305 305 304 304 304 303 302 301 301 300 300 298 297 296 295 294 294 292 290 288 286 285 284 284 284 284 283 284 284 284 284 284 284 284
301 300 300 300 300 301 301 302 302 302 302 302 302 302 302 302 302 302 301 301 301 301 301 301 301 301 301 302 302 302 302 302 302 301 300 300 300 300 299 298 298 298 299 299 299 300 301 301 302 303 304 304 304 304 303 303 302 302 301 300 300 299 298 296 295 294 294 293 292 289 287 286 285 284 284 284 284 284 284 284 284 284 284 284 284
300 299 299 299 299 299 300 300 300 300 300 300 300 300 300 300 300 299 299 299 298 298 298 298 298 298 299 299 299 300 300 301 301 300 300 300 299 299 298 298 297 298 298 298 299 299 300 300 301 302 303 303 303 303 303 302 302 301 301 300 299 298 298 296 295 294 293 293 292 289 288 287 285 284 284 284 284 284 284 284 284 284 284 284 283
299 299 298 298 298 299 299 299 300 300 300 300 299 299 299 298 298 297 297 297 297 296 296 296 296 296 296 296 297 297 297 298 299 299 299 299 299 299 298 297 297 297 297 298 298 298 299 299 300 301 301 302 302 302 302 302 302 301 301 300 298 298 298 297 296 294 293 293 292 290 289 287 285 284 285 285 284 285 285 285 284 284 284 285 284
299 299 299 299 299 299 300 300 300 300 300 300 300 300 299 299 298 297 296 296 296 295 295 295 295 295 295 295 295 295 295 296 296 297 298 298 298 298 297 297 297 297 297 297 297 298 298 298 299 299 300 300 301 301 301 301 301 301 300 298 297 297 296 296 296 296 295 294 292 290 289 288 285 285 285 285 285 285 285 285 284 285 285 285 285
299 299 299 299 299 300 300 300 300 300 300 301 300 301 301 300 300 299 297 297 296 295 295 295 294 294 294 294 294 294 294 295 295 295 296 296 296 296 296 296 296 296 297 297 297 297 297 298 298 298 299 299 299 300 300 300 300 300 299 297 297 296 296 295 295 295 295 294 293 291 290 289 288 287 286 286 286 286 285 285 285 285 285 285 284
298 298 298 298 299 299 299 300 300 300 300 300 300 300 301 301 301 300 299 298 297 296 295 295 294 294 294 293 294 294 294 294 294 294 295 295 295 294 294 294 295 296 296 296 296 297 297 297 297 297 298 298 298 298 298 299 299 298 297 296 295 295 294 294 294 293 294 294 293 293 291 290 289 288 287 286 286 286 286 286 286 285 285 284 283
297 297 297 297 297 298 298 299 299 299 299 299 300 300 300 301 301 300 299 299 299 298 297 296 295 295 295 294 294 295 295 294 294 294 294 294 294 293 293 294 294 294 295 295 296 296 296 296 296 297 297 297 297 297 297 297 296 295 294 293 293 293 293 293 293 293 293 292 292 293 293 291 290 289 287 286 286 286 286 285 285 284 284 282 281
295 295 295 296 296 296 297 297 298 298 298 299 299 299 299 299 299 298 298 298 298 298 297 297 296 296 295 295 293 294 295 295 294 294 294 293 293 292 292 293 293 293 294 295 295 295 295 295 295 296 296 296 296 296 296 295 294 293 292 291 291 290 290 291 291 291 291 292 292 292 292 291 289 288 288 287 286 287 286 284 284 284 283 281 279
293 294 294 294 295 295 295 296 296 296 297 297 297 297 297 297 297 296 294 294 295 294 294 295 296 295 294 294 293 292 294 294 293 293 293 293 293 292 291 291 292 292 293 293 294 294 294 295 295 295 295 295 295 295 295 294 292 291 291 290 289 289 289 289 289 289 289 290 290 290 290 290 288 287 287 287 287 287 287 286 285 284 283 282 280
291 292 292 293 293 293 294 294 294 295 295 295 295 296 296 296 296 295 293 292 292 293 292 292 293 294 293 293 293 292 293 294 293 293 293 293 292 291 291 290 291 291 292 292 293 293 293 294 294 294 294 294 294 294 293 293 291 291 290 289 288 288 288 288 288 288 289 289 289 289 288 288 287 287 286 287 287 287 288 288 286 285 283 282 280
289 290 291 292 292 292 292 293 293 293 294 294 295 295 296 296 296 294 293 292 291 292 292 290 291 292 292 291 292 292 292 292 293 292 292 292 292 291 290 290 290 291 291 291 292 292 292 292 293 293 294 294 293 292 292 291 291 290 289 289 288 288 288 288 288 288 288 288 288 287 287 286 286 286 286 286 286 286 288 288 287 286 285 282 280
288 289 290 291 291 291 291 291 292 292 292 293 293 294 294 295 295 293 292 292 291 291 292 290 290 292 292 291 290 291 291 291 292 292 292 292 292 291 289 289 290 290 290 291 291 291 291 291 292 293 293 292 292 291 291 291 290 290 289 289 288 288 288 288 288 288 287 287 287 286 286 286 285 285 284 285 285 286 287 287 286 286 286 284 281
287 288 289 290 290 290 290 291 291 291 291 291 291 292 293 293 293 292 290 290 289 289 290 289 288 289 291 290 290 290 290 291 291 291 292 292 292 291 289 289 289 289 289 290 290 290 290 290 291 291 291 291 290 290 290 290 290 289 288 288 288 288 288 287 287 287 287 286 285 285 284 284 283 283 283 284 284 284 285 285 285 284 284 284 282
285 287 288 289 289 289 290 290 290 290 290 289 289 290 291 292 291 291 289 288 288 287 288 287 286 287 288 289 290 289 289 290 290 290 291 291 291 290 289 289 289 288 288 289 290 290 290 290 290 290 290 290 289 289 289 289 289 289 288 288 288 287 287 286 286 286 285 284 283 283 282 282 283 282 282 283 283 283 283 283 283 282 282 281 281
284 286 287 287 288 288 288 289 289 289 289 288 287 288 289 289 289 289 287 286 286 286 286 286 285 285 286 287 288 288 288 288 289 289 289 289 289 289 289 289 288 288 288 289 289 289 289 289 289 289 289 289 289 288 288 289 289 288 288 288 287 287 286 285 285 284 283 282 282 281 280 281 282 282 281 281 281 281 281 281 281 281 280 280 279
283 284 286 286 286 287 287 288 288 288 287 286 285 286 286 286 286 287 286 284 284 284 285 285 285 284 284 285 286 287 287 287 287 287 288 288 288 288 288 288 288 287 287 288 289 289 289 289 288 288 288 288 287 287 287 288 288 288 288 287 287 286 285 284 283 283 282 282 281 280 279 279 281 281 281 280 280 280 280 280 279 279 279 279 278
281 281 283 284 284 284 285 286 286 286 285 284 283 283 284 283 284 285 284 284 284 284 284 284 284 284 284 285 285 286 286 286 286 286 287 287 287 287 287 287 287 287 286 287 288 289 289 288 288 287 287 287 286 286 287 288 288 288 287 287 286 285 284 284 283 283 282 280 280 279 279 279 280 280 280 280 280 280 279 279 278 277 277 277 276
277 277 278 279 280 281 280 281 282 282 282 281 281 281 282 282 282 283 283 283 284 284 284 284 284 284 284 285 285 285 285 285 285 285 285 286 286 286 286 286 286 286 286 287 288 288 288 287 287 286 286 286 286 286 287 288 288 287 286 286 286 285 284 284 284 283 281 281 280 279 279 279 280 279 279 279 279 278 278 278 277 275 274 275 273
275 275 274 275 276 277 277 277 278 279 279 279 280 280 281 282 282 283 283 284 284 284 284 284 284 284 284 284 284 284 284 284 284 285 285 285 285 285 285 285 285 285 286 287 287 287 287 286 286 286 285 286 286 286 287 288 287 286 285 285 284 284 284 284 283 283 282 281 280 279 279 279 278 277 277 278 278 277 276 277 276 275 273 273 272
273 273 274 274 275 275 276 276 277 277 278 278 279 279 280 281 282 283 284 284 285 285 284 284 284 284 284 284 284 283 283 284 285 284 284 284 284 285 285 285 285 285 286 287 287 286 285 285 285 285 285 286 286 286 287 286 285 284 284 284 284 283 283 283 283 283 283 282 280 279 278 277 277 276 277 277 276 275 275 275 275 274 272 272 271
272 272 273 273 273 274 274 275 276 277 277 278 279 279 280 281 282 282 283 284 284 285 284 284 284 284 284 284 284 284 284 285 285 284 284 284 284 285 285 285 286 286 286 286 285 285 284 284 285 285 286 286 286 285 285 284 283 283 283 283 283 283 283 283 284 284 283 281 280 279 277 276 276 275 276 276 275 274 274 274 274 273 272 271 270
271 271 271 272 272 273 273 274 275 276 277 277 278 279 279 280 281 282 283 284 284 285 285 284 285 285 284 285 285 284 284 285 284 284 284 284 285 285 285 286 286 286 286 285 284 284 284 285 285 285 285 285 284 283 283 282 282 282 281 281 282 282 283 283 284 284 282 280 279 278 277 276 275 274 275 275 274 273 273 273 273 272 271 271 270
270 271 271 271 271 272 273 274 274 275 276 277 277 278 279 280 281 281 282 283 284 285 285 285 285 285 285 285 285 285 285 285 284 285 284 284 285 285 285 286 286 285 285 285 284 284 284 285 285 284 284 283 282 281 281 282 282 281 281 280 281 282 283 284 284 283 282 280 279 277 277 277 276 275 275 275 274 273 272 272 271 271 270 269 269
270 270 270 270 271 271 272 273 274 274 275 276 277 278 279 280 281 281 282 283 283 284 284 285 285 285 285 285 285 285 285 285 285 285 284 284 285 285 285 286 286 285 285 285 284 284 284 284 284 283 283 282 281 281 281 281 281 281 281 281 281 281 282 283 283 282 281 280 279 278 277 277 277 276 275 274 274 273 272 271 271 270 269 269 268
269 269 269 270 270 271 271 272 273 273 274 275 276 277 278 279 280 281 281 282 283 283 284 284 284 285 285 285 285 284 284 284 285 284 284 285 285 285 286 285 285 285 285 285 284 284 283 283 283 282 282 281 281 281 281 281 281 281 280 280 280 281 281 282 281 281 280 279 279 278 278 278 277 276 274 273 273 272 272 271 270 270 269 268 268
267 267 268 268 269 270 270 271 272 272 273 274 275 275 276 278 279 280 281 282 282 283 283 284 284 284 284 284 284 284 284 284 284 284 284 285 285 286 286 285 285 285 285 284 284 283 283 283 282 281 281 281 281 281 280 280 280 280 280 280 281 281 281 280 280 280 280 279 279 279 279 278 277 276 275 274 273 272 272 271 270 270 269 268 268
266 266 266 267 267 268 269 269 270 271 272 273 274 275 276 277 279 280 281 281 282 283 283 283 283 283 283 284 284 284 284 284 284 284 284 285 286 286 285 285 284 284 284 283 283 283 282 282 282 281 281 281 281 281 281 281 280 280 281 282 282 281 280 280 279 279 279 279 279 279 278 277 276 276 275 274 273 273 272 271 270 269 268 268 267
264 264 265 265 266 267 267 268 269 270 271 272 273 274 276 277 278 280 280 281 282 282 282 283 283 283 283 283 283 283 284 283 283 284 285 285 286 285 285 285 284 283 283 283 283 283 282 282 282 282 281 281 281 281 281 281 281 280 281 281 282 281 280 280 279 279 279 279 278 278 277 277 276 275 275 274 273 272 271 270 269 267 267 267 267
263 263 264 265 265 266 267 267 268 269 270 272 273 274 275 277 278 279 280 280 281 281 282 282 282 282 283 283 283 283 283 283 283 284 285 286 285 285 285 284 284 283 283 283 282 282 282 282 282 282 282 282 281 281 281 281 281 280 280 281 281 280 280 279 279 278 279 278 278 277 277 276 276 275 275 274 273 271 270 269 268 267 266 266 266
262 263 264 264 264 265 266 267 268 269 270 271 271 273 274 276 277 278 279 279 280 280 281 282 282 282 282 282 283 283 283 283 283 285 285 285 285 284 284 284 283 283 283 283 282 282 282 282 282 281 282 282 282 282 282 281 281 280 281 280 280 279 278 278 278 278 277 277 277 277 276 276 275 274 273 272 271 270 269 268 268 267 267 266 266
262 262 263 263 263 264 265 266 267 268 268 269 270 271 273 275 276 277 278 278 279 280 281 281 282 282 282 282 282 283 283 283 283 284 285 284 284 284 284 284 283 283 283 282 282 282 282 282 281 281 281 281 282 282 282 281 281 280 280 280 279 278 277 277 277 277 277 277 276 276 275 274 274 273 272 271 270 269 269 268 268 267 267 267 266
261 262 262 263 263 264 264 265 266 267 267 268 269 270 272 273 275 276 277 277 278 279 280 281 281 281 282 282 282 282 282 283 283 283 284 284 283 283 284 284 283 283 283 282 282 282 282 281 281 281 281 281 281 281 280 280 280 280 279 278 278 277 277 276 276 276 276 275 275 274 274 273 272 271 270 269 269 268 268 268 267 267 266 266 266
261 262 262 263 263 264 264 265 265 266 266 267 268 269 271 272 274 274 275 276 277 278 279 280 280 281 281 281 281 282 282 282 282 283 283 283 283 283 283 283 283 282 282 282 281 281 281 281 281 280 280 280 280 280 280 279 279 279 278 277 277 276 276 276 275 275 274 274 273 273 272 271 271 270 270 269 268 268 267 267 267 266 266 266 265
261 262 262 263 263 263 264 264 265 265 266 266 267 269 270 272 272 273 274 275 276 277 278 279 280 280 280 281 281 282 282 282 282 282 283 283 283 282 282 282 283 282 282 281 281 281 280 280 280 280 280 279 279 279 279 278 278 278 277 277 276 276 276 275 275 274 273 273 272 272 271 271 270 270 269 268 268 267 267 266 266 266 266 265 265
261 262 262 262 263 263 264 264 265 265 266 267 268 269 270 271 272 272 273 275 276 277 278 279 279 279 279 280 281 281 281 281 281 282 282 282 282 282 282 282 282 281 281 280 280 280 279 279 279 278 278 278 278 277 277 277 277 277 277 277 276 276 276 275 275 274 273 273 273 272 271 271 270 269 268 268 267 267 267 266 266 266 265 265 264
261 262 262 262 263 263 264 264 265 265 266 267 268 269 270 270 271 272 273 275 276 277 278 278 279 279 279 279 280 280 280 280 280 281 281 282 282 281 281 281 280 280 279 279 279 278 278 277 277 277 276 276 276 276 276 276 275 275 276 276 276 276 276 275 275 274 274 273 273 272 271 270 270 269 268 267 267 267 267 266 266 265 265 265 264
262 262 262 262 263 263 264 264 265 266 266 267 268 269 269 270 271 272 273 274 276 277 277 278 278 278 278 278 278 278 278 278 279 279 280 280 280 280 279 279 279 278 278 278 277 277 276 276 275 275 275 275 275 274 274 274 274 274 274 274 275 275 275 275 274 274 273 273 272 271 271 270 269 268 268 267 267 266 266 266 265 265 265 265 264
261 262 262 262 263 263 263 264 265 265 266 267 267 268 269 270 270 271 272 273 274 276 277 277 277 277 277 276 276 276 276 276 277 278 279 279 279 278 278 277 277 277 277 276 276 275 275 274 274 274 274 274 274 274 273 273 273 273 273 273 273 274 274 273 273 273 272 272 271 270 270 269 268 267 267 267 266 266 265 265 265 265 264 264 264
261 261 261 262 262 262 263 263 263 264 265 265 266 267 268 268 269 270 271 272 273 274 276 276 276 275 275 274 274 274 274 274 275 276 277 277 277 276 276 276 276 276 275 275 274 274 274 274 273 273 273 273 273 273 273 273 273 273 273 273 273 273 272 272 272 271 270 270 269 268 268 268 267 267 267 266 266 265 265 265 264 264 264 263 263
262 261 261 261 261 262 262 262 262 263 263 264 264 265 266 267 268 269 270 271 272 273 274 274 274 274 273 273 273 273 273 273 274 274 275 275 275 275 274 274 274 274 274 273 273 273 273 273 273 273 273 273 273 273 273 272 272 272 271 271 271 270 270 270 269 269 268 268 268 267 267 267 266 266 266 266 265 265 265 264 264 264 263 263 262
262 261 261 261 261 261 261 261 261 262 262 262 263 263 264 265 266 267 268 269 271 272 272 272 272 272 272 271 271 271 271 272 273 273 273 273 273 273 272 272 272 272 272 271 271 271 271 271 271 271 271 271 271 270 270 270 270 269 269 269 269 268 268 268 268 268 268 267 267 267 267 266 266 265 265 265 265 264 264 264 264 263 263 262 262
262 262 261 261 261 261 261 261 261 261 261 261 262 262 262 263 264 265 266 267 268 269 270 270 270 270 270 270 270 270 271 272 272 272 272 272 271 270 270 270 269 269 269 269 269 269 269 269 269 269 269 269 269 268 268 268 268 268 268 268 268 268 267 267 267 267 267 267 267 266 266 266 266 265 265 265 264 264 264 263 263 263 262 262 261
Wind_Speed
21 21 21 21 21 21 20 20 20 19 18 17 17 16 16 16 15 16 16 15 15 16 17 18 19 21 22 23 25 26 27 28 29 30 31 33 34 36 36 35 35 37 36 36 36 36 37 37 37 38 36 35 36 36 36 36 37 38 37 37 37 35 34 30 21 19 24 25 22 22 22 22 23 24 25 27 29 29 29 31 34 35 37 37 35
22 21 21 21 22 22 21 21 21 21 21 20 20 20 19 19 18 18 18 17 16 17 17 18 18 20 21 23 24 25 27 28 29 29 31 33 34 36 36 35 37 37 36 37 36 35 36 37 37 37 36 36 36 36 37 36 34 35 36 36 37 36 36 35 28 21 22 24 24 22 21 22 23 23 24 26 27 28 29 31 33 34 36 37 35
22 22 23 23 23 23 24 24 24 23 23 23 23 23 22 22 22 21 21 21 20 19 19 19 19 19 21 22 24 25 26 27 28 29 31 33 34 36 36 35 37 37 37 38 37 36 36 37 38 37 36 36 37 36 36 35 33 33 34 35 37 37 37 37 33 26 24 24 22 21 21 21 23 23 23 24 25 26 28 31 32 33 35 35 35
22 22 23 24 24 24 24 25 25 25 26 26 26 26 25 25 25 24 24 24 23 22 22 21 21 21 21 23 23 25 26 27 28 29 31 32 34 35 35 35 36 37 38 38 37 36 36 37 37 36 36 36 36 36 35 34 33 32 33 35 37 38 38 38 37 34 29 24 19 19 21 21 21 22 22 23 24 25 28 30 30 32 33 33 34
21 22 23 23 24 24 25 25 25 26 26 26 27 27 27 27 26 26 26 26 26 25 24 23 23 23 23 24 24 25 25 26 28 29 31 32 33 35 35 36 36 37 38 38 37 36 36 37 37 36 35 35 36 36 35 33 32 31 34 36 37 38 37 37 38 37 33 27 20 16 18 20 20 20 23 25 24 24 25 26 28 30 30 30 31
21 22 23 24 24 25 25 26 26 26 26 26 26 26 26 26 26 26 26 27 27 26 26 26 25 25 26 25 25 26 26 26 27 28 30 31 33 34 35 36 37 37 38 38 38 37 37 37 37 36 35 36 36 35 34 32 31 33 35 36 36 36 36 35 35 34 32 30 23 17 18 20 20 20 23 26 28 27 25 24 25 28 30 30 28
21 22 23 24 25 25 26 26 26 26 26 26 27 26 26 26 26 26 26 26 27 27 27 27 27 27 27 27 27 27 27 27 27 28 29 30 32 34 35 35 36 37 38 38 37 37 37 38 38 37 37 37 37 36 34 31 32 34 35 35 35 35 34 33 32 31 30 27 23 19 20 21 20 21 23 26 26 27 29 27 25 26 29 30 29
21 22 23 23 24 25 26 26 26 26 27 27 28 28 28 28 27 27 26 26 26 26 26 27 27 28 28 28 28 28 28 28 28 29 30 30 31 33 34 34 35 36 37 37 37 37 37 38 38 39 38 38 37 37 35 33 32 34 34 34 35 34 32 31 30 28 27 24 21 19 20 20 20 20 23 26 24 24 30 31 28 29 30 29 29
20 21 23 23 24 25 26 27 27 27 28 29 30 30 30 29 29 28 28 27 26 25 25 25 26 27 27 28 28 28 29 29 29 29 29 30 31 32 33 34 34 35 36 36 36 36 37 38 38 39 39 39 38 38 37 33 31 33 34 34 33 33 31 29 27 25 24 21 19 18 18 19 22 24 25 28 28 26 29 30 28 30 31 28 28
20 21 22 23 24 25 26 27 28 28 29 30 31 31 31 31 31 30 30 29 28 27 26 25 25 25 26 26 26 27 28 29 29 29 28 29 31 32 33 34 34 34 35 36 36 36 36 37 38 38 38 38 38 37 36 32 30 33 36 35 34 33 30 28 26 25 23 20 18 18 16 16 24 31 30 30 30 30 31 30 29 31 31 26 23
20 21 21 22 23 25 26 28 28 29 30 30 31 31 31 31 31 31 31 31 30 29 28 28 27 26 26 26 26 25 25 25 26 27 28 28 29 31 32 34 34 34 35 35 36 36 35 36 37 37 37 37 37 37 35 31 29 32 36 36 36 34 32 29 27 25 24 20 19 21 20 19 26 32 30 28 29 31 33 32 34 35 31 22 16
21 22 22 23 25 27 29 30 31 32 32 33 33 33 32 32 32 32 32 31 31 31 30 30 29 29 28 28 28 28 27 25 25 26 27 27 27 29 31 33 33 34 34 35 36 36 35 36 36 37 37 36 36 35 34 31 29 32 34 35 35 36 35 32 29 27 25 23 21 24 25 22 26 31 30 30 32 33 32 33 36 36 30 23 18
22 24 25 26 28 30 31 32 33 34 34 35 35 35 35 35 34 34 34 33 33 33 32 32 31 30 30 31 31 31 30 29 27 26 27 27 26 27 30 32 33 34 34 34 35 35 35 35 35 36 36 35 34 33 33 31 29 32 33 32 33 34 34 34 33 30 30 28 26 27 27 26 29 33 34 35 36 34 31 31 34 33 28 24 22
23 25 26 27 29 30 31 32 33 34 35 35 36 36 37 37 37 37 36 36 36 36 35 34 33 32 32 32 34 33 31 30 29 27 27 27 27 27 28 30 32 34 34 34 34 34 34 34 35 35 34 33 32 32 31 30 30 32 32 31 31 32 32 33 32 31 31 32 31 29 30 31 34 36 38 39 40 38 35 34 32 28 25 23 22
25 26 27 29 30 31 32 33 33 34 35 35 36 37 37 38 39 39 38 38 37 37 37 36 36 35 35 34 35 36 34 31 30 29 28 28 27 26 27 29 31 33 34 33 33 34 33 33 34 34 34 33 31 30 29 29 29 30 30 29 29 30 31 31 31 31 32 33 33 31 31 33 34 36 39 41 40 39 38 36 33 29 25 21 21
26 28 28 30 31 32 33 34 34 35 35 35 36 36 36 37 38 38 39 40 40 39 39 39 39 39 39 37 37 39 38 33 31 30 29 28 27 27 27 29 31 32 33 32 32 33 32 32 32 33 32 32 31 29 28 28 29 28 28 27 26 27 28 29 29 30 32 31 30 29 29 31 32 34 38 39 36 34 33 30 29 28 25 21 20
27 28 29 29 30 31 32 34 35 35 36 36 36 36 36 37 37 37 38 39 40 40 40 40 40 39 40 39 36 38 39 35 31 30 29 27 27 28 28 29 30 31 32 32 31 31 31 31 31 31 31 30 29 28 27 27 27 26 25 24 23 24 25 26 25 26 27 27 27 27 27 28 30 32 36 38 36 35 32 29 28 27 24 18 14
27 28 29 29 30 31 31 33 34 35 36 36 36 37 37 37 36 36 36 37 39 39 38 39 40 39 38 38 36 36 38 36 30 28 28 27 26 27 27 28 29 30 30 31 30 30 30 30 29 30 30 30 28 28 27 25 25 25 23 23 22 22 23 23 21 21 21 21 23 24 24 26 28 30 33 35 35 34 31 31 31 29 24 18 15
26 27 28 29 29 30 31 32 33 34 36 36 36 36 37 37 37 36 36 36 37 39 38 38 40 39 37 37 36 34 36 36 31 27 26 26 25 26 26 26 28 28 28 29 29 29 29 29 28 28 29 29 28 27 26 24 24 25 24 23 23 23 23 23 22 22 21 20 21 21 21 23 25 27 29 31 31 30 30 32 35 31 23 21 22
25 26 27 28 29 30 30 32 33 33 35 36 36 36 37 37 37 37 37 36 37 38 38 37 39 41 39 37 37 35 33 34 32 27 24 24 24 24 25 25 26 28 28 27 27 27 26 27 28 28 28 28 28 27 24 23 24 26 25 26 25 24 24 24 24 24 23 22 22 22 22 24 25 26 27 28 29 28 27 29 32 31 26 25 27
24 25 26 27 28 29 29 30 32 33 33 34 35 36 35 35 36 36 36 36 36 37 39 37 38 41 40 37 37 36 32 31 30 27 24 24 24 24 24 25 26 27 28 27 25 25 26 26 28 28 28 27 26 25 24 22 23 26 27 27 25 24 25 25 24 26 26 26 26 26 27 27 27 27 28 28 26 24 24 26 27 26 23 24 27
24 25 26 27 28 29 30 30 31 32 33 33 34 36 36 34 35 35 34 35 35 35 37 36 35 39 41 39 37 36 33 31 30 27 25 24 24 24 25 26 26 25 27 28 26 25 26 26 27 27 26 25 24 24 23 21 22 25 26 23 21 23 27 27 27 29 29 29 29 30 29 29 29 29 28 27 24 21 22 22 22 20 17 20 24
24 25 26 28 29 30 31 32 33 33 34 33 33 35 36 35 35 34 33 32 33 34 35 33 32 34 38 39 38 36 34 32 31 28 27 26 26 26 26 26 26 25 26 28 27 26 26 26 26 25 24 23 22 21 21 19 21 24 23 19 20 24 27 29 29 29 28 27 28 29 27 28 30 29 27 26 23 21 21 19 18 18 17 18 19
25 26 28 29 31 32 33 34 35 35 34 33 33 34 35 35 35 34 32 30 30 32 33 32 29 30 33 36 38 36 33 32 31 30 29 29 29 28 27 26 25 25 26 28 28 27 27 25 24 24 22 21 20 19 19 18 21 23 22 20 22 26 29 29 28 27 26 24 26 26 25 25 28 29 27 25 23 22 21 20 19 18 17 17 16
26 28 30 31 32 33 35 35 35 35 33 31 31 33 34 34 34 34 32 30 28 29 31 30 28 27 29 31 35 36 34 32 31 31 31 31 30 29 28 26 25 24 25 27 27 27 26 24 23 22 21 20 19 18 17 17 20 21 21 23 27 29 29 29 28 27 24 22 24 26 25 25 27 27 26 25 25 23 22 22 20 18 17 17 16
28 29 31 33 34 34 35 36 36 35 34 32 31 32 32 31 33 34 32 30 29 29 30 29 27 26 27 29 31 33 33 32 30 31 31 31 30 29 28 27 25 24 24 24 25 25 23 21 20 20 19 18 16 16 17 18 19 21 23 27 30 30 29 30 29 26 23 22 26 28 27 26 27 27 26 26 25 24 23 22 21 19 17 16 16
27 29 30 32 34 33 33 34 35 35 34 33 31 32 32 30 30 32 32 30 29 29 28 27 26 25 26 28 29 31 32 31 30 30 29 27 28 28 27 26 25 23 22 23 22 22 20 19 18 17 16 15 15 16 16 17 20 23 26 29 29 29 29 30 29 27 25 26 28 28 28 28 29 28 27 26 24 23 21 20 20 20 17 14 16
23 27 28 29 29 29 29 30 30 31 32 32 31 31 32 30 30 32 32 30 29 30 30 28 27 26 26 28 28 29 31 30 27 26 26 25 26 27 26 25 24 22 21 21 21 19 18 16 15 13 12 13 15 15 15 17 22 25 27 27 27 27 28 27 27 27 27 28 29 28 28 29 29 28 26 24 23 21 19 17 18 18 16 14 15
22 24 25 24 23 24 25 26 26 27 28 29 30 30 30 30 30 33 35 32 29 31 32 32 31 29 28 29 27 25 29 32 29 27 28 29 28 27 25 24 23 22 21 20 18 17 14 12 12 12 12 13 13 14 16 20 23 24 25 26 26 26 26 26 27 27 27 28 29 29 29 29 28 27 26 24 22 21 18 16 16 17 16 14 14
21 21 21 20 21 22 23 24 24 25 26 27 29 32 32 30 28 30 34 34 31 29 30 32 33 31 30 32 30 27 30 36 35 31 31 30 28 26 24 22 20 20 20 17 15 14 12 11 11 12 13 13 14 18 21 23 24 23 24 25 26 25 25 26 27 27 27 29 30 30 30 30 29 27 26 25 24 21 18 16 15 15 15 15 15
21 21 20 21 22 22 23 24 25 25 26 27 28 31 34 35 32 30 29 29 30 30 29 30 31 30 30 33 33 31 32 34 33 30 29 27 25 23 22 19 17 17 17 14 12 11 11 10 10 10 12 13 15 19 22 24 25 24 23 23 24 25 26 26 26 27 28 28 29 29 29 30 29 28 26 26 25 22 19 16 15 15 15 14 15
21 22 22 22 23 23 23 25 25 25 27 29 28 28 29 32 35 36 32 27 27 30 30 30 30 30 29 30 30 31 31 30 28 27 25 24 22 20 18 16 15 14 13 13 12 11 11 10 8 9 11 13 15 18 21 25 27 26 24 23 23 24 26 26 26 26 27 28 28 28 29 29 29 28 27 26 25 23 20 18 17 16 15 14 13
22 24 24 24 25 24 24 25 26 26 27 29 29 28 27 27 29 35 38 35 31 30 30 29 29 29 29 28 27 29 30 27 25 24 23 22 21 18 15 15 14 12 12 13 13 11 9 9 9 10 13 16 17 19 22 25 26 25 24 25 25 25 25 25 25 25 26 27 27 28 29 29 29 27 26 25 24 23 22 19 17 16 15 15 14
25 26 25 25 26 27 26 26 27 28 29 29 28 28 28 28 27 29 32 34 33 30 29 28 27 27 28 28 27 28 27 26 24 23 21 21 19 16 14 13 12 12 13 14 13 11 9 9 10 11 14 18 20 21 22 24 25 25 25 26 26 25 24 24 24 24 25 25 26 26 27 27 28 28 27 26 23 22 21 19 18 17 16 15 15
28 28 27 25 26 28 29 29 28 29 30 30 29 28 28 29 28 27 27 27 28 29 30 30 28 27 27 28 28 27 26 25 23 20 20 19 16 14 13 12 11 11 11 11 12 11 11 12 12 13 15 19 22 22 23 23 24 25 26 26 26 25 24 23 23 23 24 24 24 24 25 26 27 28 28 26 24 22 20 19 18 17 16 16 15
29 29 29 27 27 29 30 30 29 29 30 31 31 29 28 27 26 26 27 27 26 27 30 31 30 28 28 28 28 26 25 24 21 18 18 17 14 12 13 12 10 9 8 9 11 11 12 13 15 16 18 20 22 23 24 24 25 26 26 26 25 25 24 24 23 23 23 22 22 23 24 26 26 26 26 24 23 20 19 19 18 17 16 15 15
28 28 29 28 28 29 29 29 29 29 29 29 29 28 28 28 27 26 26 27 27 27 28 29 28 27 27 26 26 25 24 22 20 17 16 14 12 12 13 12 10 9 10 11 11 11 12 14 16 18 20 21 21 22 24 24 24 24 24 24 24 23 23 23 22 22 22 22 22 23 24 25 25 24 23 22 22 20 19 19 18 17 15 14 14
26 25 25 26 27 28 28 28 27 26 26 26 26 26 27 28 28 26 25 26 27 27 28 27 25 24 24 25 25 23 22 20 18 16 13 12 12 12 12 12 11 11 12 12 11 11 12 13 14 17 19 20 21 21 22 22 22 22 21 21 20 20 21 21 22 22 22 22 22 22 23 23 23 22 21 21 21 21 20 19 18 17 16 15 14
25 24 23 24 25 25 25 25 25 25 24 24 25 25 26 27 26 25 25 25 26 26 27 26 24 23 24 24 24 22 19 18 16 13 12 12 11 12 12 12 11 13 13 12 11 11 11 12 13 14 16 17 18 18 19 19 19 19 19 19 19 20 21 22 22 22 21 20 21 21 21 21 22 22 21 20 20 19 19 18 17 17 16 15 14
26 25 24 23 23 23 23 23 24 24 24 24 25 24 25 26 25 25 25 25 25 26 26 25 24 24 24 24 23 21 18 17 15 12 13 12 11 12 13 13 12 13 13 12 11 11 10 11 12 12 13 14 14 14 14 15 16 16 17 18 19 21 22 22 21 20 20 19 20 21 21 22 23 22 21 18 16 16 16 16 16 15 14 13 13
28 28 26 24 23 23 23 22 23 23 23 25 25 26 26 26 25 25 26 25 26 26 26 25 25 26 25 24 23 21 20 18 15 14 15 13 12 14 16 15 14 13 12 11 11 10 10 10 11 11 11 11 11 12 12 13 14 15 16 17 18 19 20 20 19 19 19 20 21 21 22 22 22 21 19 17 14 14 14 14 15 15 14 13 13
28 28 26 24 23 23 23 23 23 24 25 26 26 26 25 25 25 25 27 27 27 27 27 26 26 26 25 25 24 21 19 18 16 15 16 14 14 16 17 16 14 13 11 11 10 9 9 10 9 9 10 10 10 10 11 11 12 13 15 16 17 18 19 19 19 19 20 20 21 21 20 20 18 17 16 15 15 15 15 15 15 15 14 13 13
27 26 25 24 24 23 24 25 25 26 26 26 26 25 25 26 27 28 29 29 29 28 27 26 26 25 25 23 21 19 19 18 17 18 18 16 16 17 17 16 15 13 12 11 10 9 8 9 9 9 9 9 9 9 9 9 11 12 14 15 16 17 18 20 21 21 21 20 19 19 18 17 17 16 15 15 15 15 16 15 15 14 14 13 13
26 26 25 26 25 25 26 26 26 26 26 26 26 27 27 27 29 29 29 29 29 28 27 26 25 24 22 19 17 18 19 19 19 20 20 19 18 17 16 16 15 15 14 12 11 9 8 8 9 9 10 10 10 9 9 8 8 9 11 14 15 17 18 19 20 20 19 18 18 17 17 16 17 17 16 16 16 16 16 15 15 14 14 13 13
26 27 27 27 27 27 27 27 26 26 27 27 27 28 28 27 28 29 29 28 27 27 26 26 24 22 20 18 18 18 18 19 19 20 21 20 19 18 18 17 16 16 14 13 11 10 8 7 8 9 10 10 11 10 10 10 9 9 9 10 11 13 14 15 15 16 16 16 16 16 16 17 17 17 17 17 16 15 15 15 14 14 14 14 13
25 26 27 27 27 27 27 27 26 26 27 27 27 27 27 27 27 28 28 27 26 26 25 24 22 20 19 18 18 17 17 18 19 20 20 20 20 19 18 18 17 16 14 13 11 9 7 6 7 8 10 11 12 12 12 12 12 11 10 10 9 10 11 12 13 14 14 14 14 15 16 17 17 17 16 16 15 15 14 14 14 13 13 13 13
25 25 26 26 26 26 26 26 26 26 26 26 25 25 27 27 27 27 28 27 26 26 25 22 19 18 17 16 16 15 15 16 18 18 19 20 20 19 18 17 16 14 13 12 10 9 9 9 9 10 11 12 12 12 12 13 13 12 12 12 12 12 12 13 13 13 13 13 13 13 15 16 16 16 15 15 15 15 14 14 13 13 12 12 12
25 25 25 26 26 25 25 25 25 25 25 24 24 24 26 27 27 26 26 26 25 23 21 18 15 14 13 13 13 13 13 14 16 17 18 19 19 18 17 16 14 13 12 11 11 11 11 12 11 11 12 12 12 12 12 12 12 12 12 12 12 12 13 13 13 13 14 13 13 13 13 13 14 14 15 14 14 14 14 14 13 13 12 12 12
24 24 25 25 25 25 25 26 25 25 24 24 23 23 24 24 24 24 23 22 20 17 14 12 10 10 10 10 11 11 12 13 14 15 17 17 17 16 15 13 13 12 12 12 13 13 13 13 13 12 12 12 11 11 11 11 11 11 11 12 12 12 12 13 13 13 14 14 14 13 13 13 13 13 13 13 13 13 13 13 12 12 12 12 12
23 23 24 24 25 25 26 26 25 25 25 24 23 23 22 22 22 22 21 18 14 10 7 6 6 6 7 8 8 9 10 12 14 15 15 15 14 13 13 12 12 12 13 13 14 13 13 13 13 13 13 12 12 12 12 12 12 12 12 12 12 12 12 12 12 12 12 13 12 12 12 12 12 13 13 13 13 13 13 12 12 12 12 12 13
22 22 23 24 24 25 26 26 26 26 26 24 23 22 23 22 22 21 18 15 11 8 4 2 1 3 4 5 6 9 11 13 14 13 13 12 12 12 12 12 13 14 14 14 14 14 13 13 13 13 13 13 12 12 12 12 11 11 11 11 11 11 11 11 11 11 11 11 11 11 11 11 11 12 12 12 12 12 12 12 12 12 12 12 12
Wind_Direction
46 44 43 41 38 36 33 31 29 25 22 18 12 7 1 355 348 340 336 334 326 316 310 307 303 298 294 289 286 283 281 279 277 274 271 269 267 266 264 261 259 258 258 256 255 253 252 253 252 252 252 255 258 259 260 259 257 254 250 247 244 241 238 237 244 260 261 257 257 256 255 251 245 239 236 233 230 228 224 221 220 216 211 207 205
43 42 41 40 37 34 31 28 25 22 19 16 13 10 6 1 355 348 345 342 335 327 321 316 310 303 298 293 291 288 285 282 280 277 273 272 271 269 266 262 260 260 259 258 257 256 255 255 255 255 254 255 257 258 257 255 254 253 250 247 244 241 237 235 239 251 260 258 254 252 249 243 238 235 231 227 225 222 217 214 215 212 208 206 202
41 40 39 39 36 33 30 28 26 23 20 17 13 9 6 2 358 353 349 346 343 338 333 326 319 311 304 299 296 292 290 287 284 281 277 275 273 271 268 264 262 261 259 259 258 256 256 256 256 256 256 257 257 256 256 255 254 253 253 251 247 244 240 236 238 244 254 258 251 244 240 234 230 229 225 223 221 216 210 208 208 206 204 202 197
40 39 38 38 35 32 30 27 25 23 20 18 14 11 8 4 1 356 351 348 346 343 339 335 328 321 314 309 305 300 297 294 291 286 282 279 276 274 271 268 265 263 261 261 260 258 256 256 257 257 257 257 256 256 256 256 254 255 258 255 249 247 244 240 238 240 247 254 249 239 234 225 221 222 217 211 210 208 204 201 201 200 197 195 192
38 36 36 35 33 31 28 26 23 21 18 16 13 11 9 6 4 360 355 351 349 346 342 339 334 328 322 317 312 308 305 301 297 293 289 285 282 278 274 271 268 266 265 264 262 260 258 258 258 258 257 256 256 256 255 255 256 260 261 256 249 247 245 242 240 239 241 246 245 232 223 216 212 213 208 200 193 191 194 195 195 193 189 186 187
36 34 33 31 29 27 25 23 21 19 17 15 12 10 8 5 4 1 357 354 351 348 344 341 337 331 327 323 318 314 310 306 300 296 293 290 286 282 278 275 272 270 268 266 265 262 260 260 260 259 257 255 254 254 254 256 261 263 259 253 249 247 245 242 240 238 238 241 239 222 209 206 201 198 200 197 187 177 175 178 182 185 182 178 179
33 33 30 28 26 24 21 20 18 16 14 13 11 9 7 5 3 1 358 354 352 349 345 342 339 335 330 327 324 320 316 311 305 301 297 292 289 285 281 278 276 274 271 269 267 264 263 262 262 261 258 256 256 255 255 260 266 264 258 254 252 248 244 242 239 236 234 235 231 217 206 203 198 191 190 191 185 175 168 163 164 172 177 177 177
30 29 27 25 22 20 18 16 14 12 10 9 7 6 5 4 2 1 358 355 352 349 346 342 339 336 333 330 327 324 320 316 312 308 304 299 295 290 286 282 279 277 275 273 270 267 266 265 264 264 262 260 260 258 257 262 266 263 258 256 253 248 244 241 236 231 228 225 220 209 198 192 187 180 177 176 174 173 172 167 161 165 171 176 180
27 25 23 21 18 15 13 12 10 9 6 5 4 2 1 0 359 358 357 355 353 350 347 343 339 336 334 331 328 325 321 319 317 314 309 305 300 295 290 285 282 279 278 276 273 270 268 267 266 266 265 264 264 262 261 264 266 263 260 256 252 247 243 238 232 225 221 218 211 197 188 184 178 171 171 175 174 171 173 171 166 167 170 172 180
24 22 19 17 14 11 9 8 7 5 3 2 1 359 358 357 356 355 354 352 351 349 347 345 341 337 334 330 327 325 322 320 318 316 312 307 303 297 292 287 284 281 279 276 274 271 270 269 269 269 268 266 266 265 263 265 269 268 264 258 253 247 241 234 228 221 215 211 203 189 183 186 184 178 177 180 177 171 171 171 167 167 168 168 175
21 19 15 13 10 8 6 5 4 2 0 359 357 356 355 354 353 351 350 349 348 347 345 343 342 339 334 330 326 324 321 320 317 315 311 307 303 297 292 288 285 281 278 276 274 273 271 270 270 270 268 266 266 265 264 265 271 274 268 261 256 250 243 235 227 219 213 210 203 194 191 192 189 185 179 176 174 172 173 173 170 167 168 167 168
18 15 12 9 7 5 3 2 1 360 358 356 354 353 352 351 350 348 347 346 345 343 342 341 339 338 335 330 326 324 322 322 319 315 312 308 303 298 292 288 284 281 278 276 274 274 273 271 271 269 268 267 266 265 264 264 271 275 270 263 258 253 247 241 233 223 214 209 203 201 200 193 184 181 178 174 174 176 176 176 174 172 173 173 172
15 12 10 7 5 4 1 360 359 357 355 353 351 351 349 348 347 346 344 343 342 341 340 338 337 336 334 330 327 324 324 325 323 318 315 311 306 301 294 288 284 281 278 276 274 273 272 271 271 270 269 268 266 266 264 265 272 275 270 264 259 253 249 245 240 234 225 217 210 207 203 192 182 182 183 179 175 175 175 176 176 177 178 180 180
10 8 7 5 3 1 358 357 356 354 352 350 348 348 346 345 344 343 341 340 339 338 336 335 335 334 332 330 327 324 324 326 324 320 316 313 308 301 294 289 285 281 278 276 273 272 271 270 270 270 270 269 267 266 265 266 272 273 268 263 258 252 248 243 238 235 232 226 218 212 205 198 193 191 189 184 180 178 176 177 178 178 178 180 182
6 4 3 1 359 357 354 353 352 350 348 347 345 344 343 342 341 339 338 337 336 335 334 333 332 331 330 329 327 324 324 326 326 322 317 313 308 301 294 290 286 282 280 277 274 273 271 270 269 269 270 269 268 268 267 268 271 269 264 261 257 250 246 241 235 231 229 227 223 217 212 208 203 197 190 186 185 183 181 180 178 173 168 165 165
1 359 357 355 354 352 350 347 346 345 343 342 340 340 339 338 337 335 333 332 332 332 331 330 329 328 327 327 326 324 324 326 327 323 319 315 309 302 296 292 287 284 282 279 277 275 272 270 268 268 268 268 269 270 270 270 267 262 258 256 252 247 242 239 235 229 227 226 224 223 221 214 206 199 191 185 183 181 177 172 168 162 154 145 143
356 353 351 349 348 346 344 342 340 339 338 337 336 335 334 333 332 331 329 328 327 328 327 326 326 325 324 324 324 322 322 325 326 323 320 317 311 304 298 293 289 285 283 282 279 277 275 272 269 268 267 267 268 270 270 267 261 255 251 246 241 238 236 233 229 226 226 227 224 223 221 213 203 196 189 184 182 180 170 158 157 156 149 141 140
350 346 344 342 341 340 338 337 336 335 333 333 332 331 330 329 328 327 326 324 323 323 323 322 322 322 321 321 321 320 319 323 326 323 320 319 314 306 299 293 288 285 284 284 281 278 277 275 272 269 268 267 268 269 267 261 253 247 241 232 225 223 220 216 211 211 216 219 217 216 212 204 195 187 184 184 185 184 177 168 165 161 155 152 148
343 339 336 335 334 334 334 333 332 332 330 329 328 327 327 325 324 324 323 321 320 320 320 319 318 319 319 319 319 318 318 321 324 323 321 319 315 308 299 292 287 285 284 283 282 280 278 277 275 271 270 271 269 266 263 254 245 240 232 220 214 211 207 200 194 192 193 193 195 195 189 186 182 176 178 183 184 186 187 181 173 165 159 155 149
335 331 329 329 328 329 329 328 328 327 326 325 324 324 323 322 321 321 320 319 318 317 317 317 316 316 317 317 317 317 317 319 322 322 319 317 314 308 298 289 284 284 284 282 281 280 278 277 277 275 273 272 268 264 261 251 239 234 225 214 211 206 195 187 183 180 175 170 171 170 166 168 168 165 166 172 175 180 185 181 175 172 167 159 155
330 327 326 325 325 324 324 325 324 323 323 323 322 320 320 319 318 318 318 317 316 315 315 315 314 314 315 315 314 315 316 318 319 318 316 314 313 308 298 289 285 283 283 282 280 279 278 277 278 278 276 273 267 262 260 249 235 228 222 216 213 202 186 177 172 168 163 159 157 155 153 154 154 152 155 160 165 171 174 173 174 177 177 170 164
327 325 324 324 323 322 322 322 322 321 321 323 321 318 318 318 317 317 316 316 314 313 312 313 312 312 313 313 313 313 315 318 317 315 313 310 310 307 300 294 290 284 280 279 277 277 277 277 279 280 279 277 271 263 256 245 229 222 220 215 207 195 181 170 162 159 156 152 148 145 145 146 145 145 148 151 153 156 161 165 169 172 178 180 177
325 323 323 322 322 322 321 321 321 320 321 322 320 317 317 318 317 316 315 314 312 310 309 309 309 309 310 311 311 312 314 317 317 314 312 310 309 308 303 298 294 285 277 275 275 275 277 278 280 281 281 279 273 261 251 241 226 217 214 206 196 187 174 163 156 153 148 144 142 139 140 144 145 143 144 145 147 149 151 155 161 164 165 170 175
324 322 322 321 321 321 320 319 318 318 319 320 318 315 315 316 315 313 312 310 307 305 305 306 306 305 306 308 309 310 312 315 315 314 313 312 311 309 306 301 296 288 278 274 273 274 275 277 281 282 280 278 270 255 245 236 221 213 207 196 185 176 166 157 152 148 142 141 141 138 136 141 145 144 144 144 144 145 147 148 154 160 160 160 161
325 323 322 321 321 320 318 316 316 316 317 317 314 312 312 312 311 310 309 306 302 300 300 301 301 300 300 301 303 307 309 310 311 311 313 313 311 309 307 302 296 289 280 275 274 273 273 278 282 280 277 274 264 249 241 229 213 204 196 183 174 168 162 156 152 148 144 142 142 139 137 142 145 144 144 144 144 146 149 149 150 154 155 153 148
326 324 322 321 320 320 318 315 315 316 315 313 311 308 307 306 306 306 304 302 299 296 295 296 296 295 295 296 298 303 305 306 306 308 311 312 311 310 308 304 297 289 281 275 272 271 272 277 278 274 270 266 252 237 233 223 206 193 182 175 171 167 162 158 154 150 144 142 142 142 142 144 145 144 145 149 151 153 156 154 148 145 148 149 141
325 321 320 319 318 319 318 315 315 314 313 311 309 307 305 303 301 300 299 298 297 293 290 290 289 289 291 293 296 299 301 302 303 306 309 310 310 309 308 305 299 291 281 273 268 267 270 273 272 267 263 256 240 230 228 214 193 178 172 170 169 166 163 162 159 154 148 146 147 147 146 146 146 147 150 154 154 154 159 160 152 143 146 150 140
320 317 317 316 315 315 313 311 310 309 307 308 306 303 303 301 297 295 295 294 292 289 287 284 282 283 285 289 293 297 297 296 299 304 307 307 306 305 304 301 296 288 279 271 266 266 269 268 262 253 246 239 231 224 211 188 173 166 163 163 163 163 162 161 157 154 153 152 151 150 149 149 149 150 153 156 155 154 159 164 157 148 148 150 142
318 316 315 312 310 310 308 306 305 304 303 304 303 300 299 296 292 292 295 295 291 287 285 282 281 283 283 283 286 288 290 293 297 300 302 301 300 299 297 294 289 282 276 271 266 264 261 252 242 235 229 223 210 190 170 160 156 155 157 159 160 160 161 159 156 155 157 158 156 153 152 152 152 153 156 157 155 156 161 164 160 155 154 152 148
318 316 315 311 307 307 305 303 303 303 302 303 304 303 302 298 291 288 293 295 293 288 283 282 284 286 283 282 282 279 282 290 296 298 297 296 295 293 291 287 280 275 273 267 260 257 249 238 233 227 213 195 173 157 149 146 145 146 152 157 159 158 159 159 158 159 161 162 160 158 158 157 156 157 160 160 157 158 163 166 165 162 161 158 154
316 315 313 310 309 308 305 303 304 304 303 304 305 306 306 306 302 295 291 292 293 292 287 283 285 285 281 281 283 283 282 287 292 293 294 293 289 286 286 282 271 266 266 257 243 240 240 238 234 215 189 169 154 147 145 145 145 146 148 152 156 159 160 160 160 163 164 164 163 163 163 162 160 160 163 164 162 162 165 167 167 165 164 163 160
313 312 310 309 309 308 305 305 305 304 305 307 307 305 305 307 307 305 301 295 292 292 291 287 286 285 283 281 282 283 284 285 286 288 290 290 285 282 281 275 261 255 254 243 230 231 235 232 215 184 162 152 147 146 146 148 151 152 151 151 155 160 162 162 164 168 168 168 169 168 167 167 167 166 168 169 168 166 167 169 170 167 162 161 160
311 309 308 308 308 306 305 305 304 303 304 306 306 305 303 302 303 305 305 303 297 292 291 290 288 287 286 283 280 281 283 283 283 283 284 284 283 279 272 264 254 247 243 235 227 226 225 212 190 168 156 152 150 150 152 155 156 156 155 157 159 162 163 164 168 171 172 173 173 172 171 173 172 170 171 173 174 172 171 172 172 169 165 162 159
310 307 305 304 304 302 302 302 301 302 302 302 301 300 299 297 295 295 298 302 301 298 295 293 291 289 287 285 282 282 282 282 281 279 278 280 279 270 257 251 249 247 243 233 222 214 204 188 172 160 156 156 157 158 157 158 159 159 160 161 161 161 163 166 169 172 173 175 175 174 174 176 175 173 173 174 175 176 175 175 174 173 172 168 162
311 307 303 301 299 298 298 298 298 298 298 298 297 295 292 291 290 288 288 291 293 294 294 292 291 290 288 286 285 283 282 282 280 275 274 276 271 255 242 240 244 249 244 226 211 204 195 181 170 162 159 161 164 165 162 159 161 163 164 162 161 161 164 168 172 174 176 177 178 177 178 179 180 180 178 176 176 178 179 180 182 181 177 173 168
312 308 306 304 301 298 297 296 295 295 294 293 293 292 289 287 286 286 286 286 284 285 288 289 291 292 290 288 287 284 281 280 276 270 270 268 255 238 231 231 236 239 223 199 193 193 189 182 176 170 167 166 168 168 166 165 167 168 167 166 165 167 170 172 174 176 177 178 179 180 180 181 182 182 180 179 181 184 186 186 186 184 179 174 170
313 310 308 307 305 301 298 295 293 291 289 288 289 289 289 287 286 286 286 286 285 284 285 287 290 292 291 289 287 284 282 278 270 265 263 254 237 228 228 227 226 217 198 185 183 184 182 181 178 174 173 172 172 171 170 171 172 170 168 168 171 173 175 176 177 178 179 180 181 182 182 182 181 182 182 182 183 187 190 190 186 181 176 173 169
316 310 306 306 304 302 299 295 293 291 288 286 287 288 288 287 286 286 285 286 286 286 285 285 287 286 286 288 287 284 281 275 267 260 248 231 222 222 222 218 215 207 194 185 184 184 180 179 179 178 177 178 177 176 175 175 174 171 169 170 174 177 178 179 180 181 183 182 182 182 182 181 181 183 186 187 187 188 189 189 185 179 173 174 177
316 309 305 303 300 297 295 293 293 292 290 286 286 287 287 287 286 286 287 288 287 285 284 283 282 280 281 284 284 279 272 267 261 245 218 208 214 216 210 206 206 200 191 186 188 189 183 179 179 180 180 182 183 183 182 180 178 176 174 174 176 179 182 183 182 182 184 183 181 179 180 181 181 184 189 192 193 191 188 187 187 184 180 180 184
316 310 307 304 300 294 292 291 291 289 287 285 286 287 288 287 286 287 289 289 287 286 284 281 279 280 281 281 278 270 259 255 249 223 201 202 209 204 202 206 205 197 192 190 191 191 188 184 183 182 182 184 185 186 187 185 182 180 180 180 181 182 184 184 183 181 180 179 178 177 179 182 183 186 189 193 194 194 191 189 188 187 186 185 184
317 311 307 304 300 295 291 289 288 287 287 288 289 288 286 286 286 289 291 290 288 287 285 280 278 280 280 278 273 262 251 247 240 213 197 202 205 198 199 206 206 201 197 194 190 189 189 187 186 185 185 187 188 188 188 188 187 186 186 186 186 185 183 181 180 179 177 177 178 179 181 184 186 187 189 189 188 188 190 189 187 186 185 185 185
317 312 307 305 302 298 294 291 290 290 291 290 288 286 285 286 289 291 292 291 289 287 284 281 280 280 279 276 270 258 244 240 232 211 196 198 203 200 199 201 201 201 198 192 187 184 180 176 175 177 179 183 188 190 190 191 192 192 190 188 188 185 181 178 178 178 177 178 180 182 182 184 186 188 189 189 187 185 185 187 186 186 187 187 189
317 312 307 305 303 300 297 295 294 293 291 289 287 287 288 289 290 291 290 288 287 285 282 280 280 279 277 272 263 247 233 229 222 208 197 195 198 198 196 195 193 191 187 182 180 180 180 179 178 179 180 182 185 188 190 193 195 195 193 191 189 185 182 179 178 178 180 180 180 181 182 183 186 188 189 189 189 188 187 188 187 188 191 192 192
320 315 311 307 305 302 300 298 296 293 292 291 290 290 290 290 290 290 289 287 285 283 280 278 277 275 270 260 243 227 223 221 215 205 197 193 192 192 190 187 184 180 177 177 178 180 185 189 188 186 185 182 178 174 171 173 182 190 192 189 186 183 183 182 181 181 182 182 180 180 182 185 187 189 190 190 191 191 191 191 191 191 193 194 195
324 320 316 313 309 306 304 302 298 295 296 296 294 293 293 292 291 291 290 288 286 284 281 278 274 268 257 242 228 221 219 215 208 201 195 191 188 185 182 179 176 175 174 174 174 175 179 187 189 186 180 172 165 161 157 154 156 165 176 181 182 182 182 184 185 185 186 187 187 187 187 188 190 192 193 193 194 195 195 196 196 195 196 198 200
329 325 321 317 313 311 309 307 304 302 301 300 297 296 296 296 294 294 293 291 289 287 283 278 270 260 247 234 226 221 215 207 200 194 189 184 180 177 175 173 172 172 171 170 171 174 177 179 181 179 175 168 162 158 156 153 152 156 161 164 169 173 175 178 183 186 188 192 194 194 193 193 193 194 195 195 196 198 199 199 200 201 202 205 207
335 331 326 322 318 315 313 312 311 308 306 303 301 300 300 300 299 297 296 295 293 289 283 275 265 253 240 230 223 217 210 201 194 187 181 178 174 171 171 170 169 169 170 171 173 175 171 164 161 163 166 166 162 159 158 158 158 160 162 161 162 166 170 175 181 185 189 193 196 197 197 196 193 193 195 196 197 199 200 201 203 205 205 207 208
342 338 333 329 325 320 318 318 316 313 310 309 307 306 306 306 304 302 300 300 299 293 283 272 258 244 232 224 218 213 205 198 191 183 177 174 171 168 168 169 168 171 173 173 171 170 164 157 153 153 156 159 160 160 161 162 163 164 166 165 166 170 174 179 183 185 186 189 191 191 193 195 194 195 196 197 198 201 202 202 204 206 204 206 209
348 345 341 337 332 327 324 322 319 316 315 315 314 314 315 314 312 310 309 308 305 298 285 267 248 235 225 217 211 206 199 192 185 176 170 168 165 164 166 166 167 169 170 167 163 160 156 153 151 150 151 153 156 157 160 162 163 165 166 167 168 171 174 178 182 184 185 187 188 188 188 191 193 194 196 197 198 200 203 203 204 205 204 205 208
352 350 347 344 341 337 333 330 326 324 324 323 320 322 326 328 327 326 326 323 319 311 294 266 242 226 216 207 202 196 188 178 169 163 160 160 161 161 162 163 162 161 160 157 153 150 149 148 149 149 150 152 154 157 160 163 164 166 168 169 169 172 175 177 181 184 186 188 190 190 190 190 190 191 193 195 196 199 202 202 203 204 206 208 209
354 353 351 349 347 346 344 341 338 336 335 333 331 333 339 345 347 348 349 348 347 345 335 306 224 190 187 185 182 176 168 159 155 153 154 156 158 159 159 158 156 154 152 149 146 145 145 146 147 149 152 155 157 160 163 166 167 169 171 172 172 175 177 180 182 186 189 190 191 192 192 193 194 194 194 196 199 201 203 204 205 206 207 209 211